Location: Kervinic
(48.4279°N, 4.7373°W)
Time: 17:31:39
(UTC+00:00)

Cosmos 1140 Rocket - Pass Details

Date: 09 April 2020
Orbit: 745 x 767 km, 74.1° (Epoch: 25 May)

Event Time Altitude Azimuth Distance (km) Brightness Sun altitude
Rises 20:04:14 0° 193° (SSW) 3,202 6.6 -10.6°
Reaches altitude 10° 20:06:36 10° 191° (S) 2,277 5.8 -11.0°
Maximum altitude 20:11:43 68° 109° (ESE) 810 3.4 -11.7°
Drops below altitude 10° 20:16:51 10° 27° (NNE) 2,280 6.0 -12.5°
Sets 20:19:13 0° 25° (NNE) 3,206 6.8 -12.8°
